Home   Weather   Upernavik   Past weeks

Flag for Greenland Past Weather in Upernavik, Greenland — Yesterday and Last 2 Weeks

Now
14 °F

Cold.


Feels Like: -2 °F
Forecast: 19 / 24 °F
Wind: 16 mph from Northwest

Location: Edderfugle Oeer

Current Time: Apr 25, 2017 at 4:49:51 am

Latest Report: Apr 25, 2017 at 4:00 am


Visibility: N/A

Pressure: 29.70 "Hg

Humidity: 90%

Dew Point: 11 °F

Location of UpernavikLocation

Past Weather in Upernavik — Graph

°F

Upernavik Temperature Yesterday

Maximum temperature yesterday: 25 °F (at 12:00 pm)
Minimum temperature yesterday: 17 °F (at 1:00 am)
Average temperature yesterday: 21 °F

High & Low Weather Summary for the Past Weeks

 TemperatureHumidityPressure
High25 °F (Apr 24, 12:00 pm)94% (Apr 24, 7:00 am)30.44 "Hg (Apr 24, 7:00 am)
Low-13 °F (Apr 17, 6:00 am)51% (Apr 11, 2:00 pm)29.35 "Hg (Apr 17, 9:00 pm)
Average10 °F80%30.05 "Hg
* Reported Apr 10 3:00 am — Apr 25 3:00 am, Upernavik, Weather by CustomWeather, © 2017

Note: Actual official high and low records may vary slightly from our data, if they occured in-between our weather recording intervals... More about our weather records

Advertising

Upernavik Weather History for the Previous 24 Hours

Scroll right to see more
 ConditionsComfort  
Time TempWeatherWind HumidityBarometerVisibility
3:00 am
Tue, Apr 25
15 °FCold.12 mph86%29.72 "HgN/A
2:00 am14 °FCold.13 mph87%29.72 "HgN/A
1:00 am15 °FCold.16 mph87%29.70 "HgN/A
12:00 am16 °FCold.18 mph86%29.70 "HgN/A
11:00 pm
Mon, Apr 24
17 °FCold.23 mph82%29.69 "HgN/A
10:00 pm18 °FCold.23 mph88%29.70 "HgN/A
9:00 pm20 °FCold.28 mph85%29.71 "HgN/A
8:00 pm21 °FCold.28 mph85%29.72 "HgN/A
7:00 pm22 °FCold.26 mph91%29.74 "HgN/A
6:00 pm23 °FCold.24 mph91%29.78 "HgN/A
5:00 pm24 °FCold.21 mph89%29.80 "HgN/A
4:00 pm24 °FCold.18 mph84%29.84 "HgN/A
3:00 pm25 °FCold.14 mph84%29.88 "HgN/A
2:00 pm24 °FCold.12 mph82%29.91 "HgN/A
1:00 pm25 °FCold.6 mph84%29.95 "HgN/A
12:00 pm25 °FCold.3 mph86%29.98 "HgN/A
11:00 am24 °FCold.3 mph91%30.00 "HgN/A
10:00 am24 °FCold.6 mph92%30.02 "HgN/A
9:00 am24 °FCold.10 mph92%30.03 "HgN/A
8:00 am22 °FCold.12 mph94%30.04 "HgN/A
7:00 am22 °FCold.16 mph94%30.05 "HgN/A
6:00 am20 °FCold.16 mph93%30.06 "HgN/A
5:00 am20 °FCold.18 mph93%30.08 "HgN/A
4:00 am18 °FCold.15 mph88%30.09 "HgN/A
Weather by CustomWeather, © 2017

See weather overviewHow to use our weather pages